This is the latest recevied weather packets stored in our database for station/object KA3WVU. If no packets are shown the sender has not sent any weather packets the latest 10 day(s).
| Time | Temp. | Humidity | Pressure | Rain* | Wind** | Luminosity | Snow |
|---|---|---|---|---|---|---|---|
| 1777395395 | 8.33° C | 99% | 1015.6 hPa | 0 mm | - | 59 W/m² | - |
| 1777395093 | 8.33° C | 99% | 1015.8 hPa | 0 mm | - | 55 W/m² | - |
| 1777394789 | 8.33° C | 99% | 1015.8 hPa | 0 mm | - | 73 W/m² | - |
| 1777394485 | 8.33° C | 99% | 1015.9 hPa | 0 mm | - | 72 W/m² | - |
| 1777394182 | 7.78° C | 99% | 1015.6 hPa | 0 mm | - | 67 W/m² | - |
| 1777393878 | 7.78° C | 99% | 1015.7 hPa | 0 mm | - | 65 W/m² | - |
| 1777393577 | 7.78° C | 99% | 1016.1 hPa | 0 mm | - | 62 W/m² | - |
| 1777393272 | 7.78° C | 99% | 1016.1 hPa | 0 mm | - | 46 W/m² | - |
| 1777392970 | 8.33° C | 99% | 1015.9 hPa | 0 mm | - | 55 W/m² | - |
| 1777392670 | 7.78° C | 99% | 1015.8 hPa | 0 mm | - | 63 W/m² | - |
| 1777392366 | 7.78° C | 99% | 1015.9 hPa | 0 mm | - | 57 W/m² | - |
| 1777392062 | 8.33° C | 99% | 1015.7 hPa | 0 mm | - | 61 W/m² | - |
| 1777391756 | 7.78° C | 99% | 1016 hPa | 0 mm | - | 74 W/m² | - |
| 1777391454 | 7.78° C | 99% | 1015.8 hPa | 0 mm | - | 74 W/m² | - |
| 1777391150 | 7.78° C | 99% | 1015.9 hPa | 0 mm | - | 68 W/m² | - |
| 1777390846 | 7.78° C | 99% | 1016 hPa | 0 mm | - | 59 W/m² | - |
| 1777390543 | 7.78° C | 99% | 1016.3 hPa | 0 mm | - | 48 W/m² | - |
| 1777390239 | 7.78° C | 99% | 1016.1 hPa | 0 mm | - | 41 W/m² | - |
| 1777389936 | 7.78° C | 99% | 1016.1 hPa | 0 mm | - | 43 W/m² | - |
| 1777389633 | 7.78° C | 99% | 1016.1 hPa | 0 mm | - | 54 W/m² | - |
| 1777389329 | 7.78° C | 99% | 1016.2 hPa | 0 mm | - | 50 W/m² | - |
| 1777389027 | 7.22° C | 99% | 1016.1 hPa | 0 mm | - | 40 W/m² | - |
| 1777388724 | 7.22° C | 99% | 1016.2 hPa | 0 mm | - | 30 W/m² | - |
| 1777388421 | 7.22° C | 99% | 1016.2 hPa | 0 mm | - | 32 W/m² | - |
| 1777388120 | 7.22° C | 99% | 1016.4 hPa | 0 mm | - | 29 W/m² | - |
* Rain latest hour (hover to see other rain measurements)
** Current wind speed in m/s (hover to see current wind gust speed)